Regional Weather Roundup
Issued by NWS

Home | Current Version | Previous Version | Text Only | Print | Product List | Glossary Off
Versions: 1 2 3 4 5 6 7 8 9 10 11 12 13 14 15 16 17 18 19 20 21 22 23 24 25 26 27 28 29 30 31 32 33 34 35 36 37 38 39 40 41 42 43 44 45 46 47 48 49 50

000
ASUS43 KMPX 242001
RWRMN
WEATHER ROUNDUP FOR MINNESOTA
NATIONAL WEATHER SERVICE TWIN CITIES/CHANHASSEN MN
300 PM CDT FRI APR 24 2015


NOTE: "FAIR" INDICATES FEW OR NO CLOUDS BELOW 12,000 FEET WITH NO
SIGNIFICANT WEATHER AND/OR OBSTRUCTIONS TO VISIBILITY. N/A MEANS
CURRENT SKY AND/OR WEATHER CONDITIONS ARE NOT AVAILABLE.

MNZ060>063-068>070-242100-
   Twin Cities Metro

CITY           SKY/WX    TMP DP  RH WIND       PRES   REMARKS
TWIN CITIES    CLOUDY    48  39  71 SE18      29.84F
ST PAUL        CLOUDY    49  38  65 SE12G21   29.86F
CRYSTAL        CLOUDY    50  38  63 E12G20    29.83F
BLAINE         CLOUDY    52  36  54 SE10      29.85F
LAKEVILLE      DRIZZLE   45  39  81 SE9       29.83S
EDEN PRAIRIE   LGT RAIN  47  40  76 E15G23    29.82F
SOUTH ST PAUL  CLOUDY    49  37  63 SE9       29.85S
LAKE ELMO      CLOUDY    50  36  57 SE10G21   29.87S
$$
MNZ001>005-007-008-013>017-022>024-027-028-242100-
   Northwest Minnesota

CITY           SKY/WX    TMP DP  RH WIND       PRES   REMARKS
BEMIDJI        CLOUDY    44  31  61 SE18G24   29.81S
HALLOCK        CLOUDY    54  34  47 SE10      29.78F
ROSEAU         CLOUDY    46  30  53 SE10G18   29.84S
WARROAD        CLOUDY    41  32  70 E8        29.86S
THIEF RVR FALL CLOUDY    46  34  61 E15       29.80R
CROOKSTON      CLOUDY    52  37  58 SE14      29.77S
FOSSTON        CLOUDY    48  36  61 SE8G18    29.78S
DETROIT LAKES  PTSUNNY   46  37  71 SE17      29.75S
MOORHEAD       PTSUNNY   52  39  62 SE15      29.72S
PARK RAPIDS    CLOUDY    47  34  60 SE14      29.78F
MAHNOMEN       CLOUDY    49  38  65 SE14G21   29.74F
$$
MNZ006-009>011-018-025>026-242100-
   North Central Minnesota

CITY           SKY/WX    TMP DP  RH WIND       PRES   REMARKS
BAUDETTE       CLOUDY    42  27  55 SE12      29.87F
FLAG ISLAND    CLOUDY    41  25  52 SE7       29.88F
INTL FALLS     CLOUDY    41  22  46 E10       29.91F
WASKISH        CLOUDY    43  34  70 E10G17    29.85F
BIG FORK       CLOUDY    43  34  70 E7        29.88F
LONGVILLE      CLOUDY    43  32  65 SE8       29.84S
GRAND RAPIDS   CLOUDY    43  27  52 SE9G16    29.88F
CRANE LAKE     CLOUDY    43  18  36 CALM      29.95F
ORR            CLOUDY    43  18  36 SE8       29.89F
COOK           CLOUDY    45  19  36 SE8       29.92S
WALKER         CLOUDY    42  32  66 SE8       29.82F
$$
MNZ012-019>021-037-242100-
   Northeast Minnesota

CITY           SKY/WX    TMP DP  RH WIND       PRES   REMARKS
DULUTH         CLOUDY    40  31  70 E15       29.93F
ELY            CLOUDY    43  12  28 SE12      29.94S
HIBBING        CLOUDY    44  26  49 SE18      29.91F
EVELETH        PTSUNNY   43  21  42 SE15G21   29.93F
DULUTH HARBOR  CLOUDY    37  34  87 NE16      29.98F
TWO HARBORS    CLOUDY    43  27  52 E13       29.96S
SILVER BAY     CLOUDY    39  21  48 NE10      29.96F
GRAND MARAIS     N/A     38  21  50 E12       30.04F
G MARAIS ARPRT MOSUNNY   37   9  30 E6        29.99F
$$
MNZ029>031-032-039>041-046>048-054>057-064-242100-
   West Central Minnesota

CITY           SKY/WX    TMP DP  RH WIND       PRES   REMARKS
FERGUS FALLS   CLOUDY    48  37  66 SE15      29.73F
WHEATON        PTSUNNY   52  45  76 E23       29.68F
MORRIS         MOSUNNY   54  45  71 SE23      29.68F
ALEXANDRIA     LGT RAIN  45  40  82 SE17G25   29.75S
ELBOW LAKE     CLOUDY    49  42  74 SE17G25   29.71F
WADENA         CLOUDY    43  36  75 SE15G22   29.77S
GLENWOOD       MOSUNNY   45  41  87 SE18G28   29.74S
APPLETON       MOSUNNY   57  45  62 SE18G28   29.68S
BENSON         PTSUNNY   52  41  66 SE21G28   29.71S
ORTONVILLE     MOSUNNY   55  43  62 SE21G30   29.65S
MADISON        MOSUNNY   61  41  48 E22G30    29.65F
WILLMAR        FAIR      48  43  81 E22G28    29.74F
$$
MNZ033>034-036-042>043-049>051-058-059-242100-
   Central Minnesota

CITY           SKY/WX    TMP DP  RH WIND       PRES   REMARKS
ST CLOUD       LGT RAIN  41  39  93 E9        29.78F FOG
SAUK CENTRE    CLOUDY    44  40  87 SE21G33   29.76S
PAYNESVILLE    CLOUDY    41  40  95 E17G25    29.76F
AITKIN         CLOUDY    45  34  65 E6        29.84S
PINE RIVER     CLOUDY    43  36  75 E13       29.85F
BRAINERD       CLOUDY    45  30  55 SE12G20   29.82F
STAPLES        CLOUDY    43  34  70 SE14      29.79S
LONG PRAIRIE   CLOUDY    41  37  87 E10G16    29.77F
LITTLE FALLS   CLOUDY    43  36  75 E15G23    29.80F
LITCHFIELD     CLOUDY    46  45  93 E21       29.77F
BUFFALO        CLOUDY    46  40  80 E13G20    29.81F
MAPLE LAKE     CLOUDY    46  43  90 E15G21    29.80F
$$
MNZ037-044-045-052-053-242100-
   East Central Minnesota

CITY           SKY/WX    TMP DP  RH WIND       PRES   REMARKS
PRINCETON      LGT RAIN  45  39  81 E8G17     29.82F
MORA           LGT RAIN  43  34  70 E12G20    29.87F
CAMBRIDGE      RAIN      46  36  66 E9        29.81F
RUSH CITY      CLOUDY    46  33  59 E7        29.85F
MOOSE LAKE     CLOUDY    37  32  81 E5        29.89S
HINCKLEY       LGT RAIN  43  34  70 SE12      29.89S
CLOQUET        CLOUDY    37  34  87 E10       29.91F
MCGREGOR       CLOUDY    41  34  75 E18G24    29.88S
$$
MNZ071>073-080-081-089-090-097-098-242100-
   Southwest Minnesota

CITY           SKY/WX    TMP DP  RH WIND       PRES   REMARKS
MONTEVIDEO     PTSUNNY   54  45  71 S21G26    29.70S
GRANITE FALLS  PTSUNNY   51  40  68 E21       29.71S
CANBY          PTSUNNY   60  43  54 SE16G22   29.64F
MARSHALL       CLOUDY    55  41  58 SE20      29.66F
REDWOOD FALLS  CLOUDY    49  41  74 SE20G28   29.72F
OLIVIA         CLOUDY    46  36  66 SE16G23   29.73S
PIPESTONE      CLOUDY    57  48  72 SE14G21   29.63S
WORTHINGTON    CLOUDY    52  45  76 SE21G26   29.66F
JACKSON        CLOUDY    46  43  87 SE18G25   29.71F
TRACY          CLOUDY    54  45  71 SE13      29.68F
SLAYTON        CLOUDY    53  47  80 SE18      29.67S
$$
MNZ065>067-074>077-082>085-091>093-242100-
   South Central Minnesota

CITY           SKY/WX    TMP DP  RH WIND       PRES   REMARKS
MANKATO        CLOUDY    46  37  71 SE23G29   29.77F
NEW ULM        CLOUDY    46  41  81 SE17      29.75R
ST JAMES       CLOUDY    48  39  71 SE21G26   29.75S
FAIRMONT       CLOUDY    45  10  24 SE24      29.71F
GLENCOE        CLOUDY    47  42  80 E17G23    29.78F
FARIBAULT      CLOUDY    46  41  81 E13       29.81F
OWATONNA       CLOUDY    46  39  76 SE15G25   29.81S
WASECA         LGT RAIN  45  39  81 SE16G23   29.81R
ALBERT LEA     DRIZZLE   45  43  93 SE24G33   29.78F
$$
MNZ078>079-086>088-094>096-242100-
   Southeast Minnesota

CITY           SKY/WX    TMP DP  RH WIND       PRES   REMARKS
ROCHESTER      LGT RAIN  43  39  86 SE24G33   29.82F FOG
RED WING       DRIZZLE   50  34  53 SE9       29.84F
STANTON        CLOUDY    48  37  67 SE12G17   29.83S
DODGE CENTER   CLOUDY    45  41  87 SE16      29.82R
WINONA         CLOUDY    48  34  57 SE14G21   29.88F
AUSTIN         CLOUDY    43  37  81 SE17G25   29.80F
PRESTON        CLOUDY    42  38  84 SE10      29.87S
$$
ABBREVIATIONS USED IN REMARKS
   TC - TEMPERATURES IN CELSIUS
  WCI - WIND CHILL INDEX
   HX - HEAT INDEX
  VSB - VISIBILITY
$$


USA.gov is the U.S. government's official web portal to all federal, state and local government web resources and services.